Weather History for KASH - December, 2012

Change the Weather History Date:

Wednesday, December 5, 2012

  Actual Average Record
Temperature  
Mean Temperature 44 °F -  
Max Temperature 57 °F 39 °F 66 °F (2001)
Min Temperature 31 °F 20 °F 3 °F (1971)
Degree Days  
Heating Degree Days 20    
Moisture  
Dew Point 36 °F    
Average Humidity 64    
Maximum Humidity 89    
Minimum Humidity 44    
Precipitation  
Precipitation 0.02 in - - ()
Sea Level Pressure  
Sea Level Pressure 29.95 in    
Wind  
Wind Speed 9 mph (NW)    
Max Wind Speed 25 mph    
Max Gust Speed 34 mph    
Visibility 10 miles    
Events Rain    
Averages and records for this station are not official NWS values.
T = Trace of Precipitation, MM = Missing Value Source: NWS Daily Summary

Daily Weather History Graph

Daily Weather History Graph

Search for Another Location

Airport or City:

Trip Planner

Search our weather history database for the weather conditions in past years. The results will help you decide how hot, cold, wet, or windy it might be!

Date:

Astronomy

Dec. 05, 2012 Rise Set
Actual Time 7:01 AM EST 4:12 PM EST
Civil Twilight 6:29 AM EST 4:44 PM EST
Nautical Twilight 5:54 AM EST 5:19 PM EST
Astronomical Twilight 5:20 AM EST 5:53 PM EST
Moon 11:05 PM EST (12/5) 11:17 AM EST (12/5)
Length of Visible Light 10h 14m
Length of Day
9h 10m
Waning Gibbous, 60% of the Moon is Illuminated
Dec 5
Waning Gibbous
Dec 6
Last Quarter
Dec 13
New
Dec 20
First Quarter
Dec 28
Full

Hourly Weather History & Observations

Time (EST) Temp. Windchill Dew Point Humidity Pressure Visibility Wind Dir Wind Speed Gust Speed Precip Events Conditions
12:51 AM 56.8 °F - 52.9 °F 87% 29.93 in 10.0 mi Variable 4.6 mph - N/A   Mostly Cloudy
1:24 AM 57.2 °F - 51.8 °F 82% 29.89 in 10.0 mi Variable 5.8 mph - N/A   Scattered Clouds
1:51 AM 57.9 °F - 52.9 °F 83% 29.89 in 10.0 mi Variable 6.9 mph - N/A   Partly Cloudy
2:51 AM 56.8 °F - 52.0 °F 84% 29.86 in 10.0 mi Variable 6.9 mph - N/A   Partly Cloudy
3:51 AM 56.8 °F - 52.0 °F 84% 29.83 in 9.0 mi Variable 5.8 mph - 0.00 in Rain Light Rain
4:51 AM 55.9 °F - 52.9 °F 89% 29.85 in 8.0 mi Variable 3.5 mph - 0.01 in Rain Light Rain
5:26 AM 55.4 °F - 48.2 °F 77% 29.84 in 10.0 mi NW 6.9 mph - N/A   Mostly Cloudy
5:51 AM 55.9 °F - 46.9 °F 72% 29.87 in 10.0 mi NW 12.7 mph - N/A   Overcast
6:28 AM 53.6 °F - 48.2 °F 82% 29.86 in 10.0 mi West 4.6 mph - 0.01 in Rain Light Rain
6:51 AM 52.0 °F - 46.9 °F 83% 29.88 in 10.0 mi NW 4.6 mph - 0.01 in   Mostly Cloudy
7:16 AM 51.8 °F - 46.4 °F 82% 29.89 in 10.0 mi NW 5.8 mph - N/A   Mostly Cloudy
7:51 AM 52.0 °F - 45.9 °F 80% 29.90 in 10.0 mi NW 8.1 mph - N/A   Mostly Cloudy
9:51 AM 52.0 °F - 36.9 °F 56% 29.93 in 10.0 mi WNW 12.7 mph - N/A   Scattered Clouds
10:51 AM 52.0 °F - 34.0 °F 50% 29.93 in 10.0 mi West 10.4 mph - N/A   Scattered Clouds
11:51 AM 52.0 °F - 32.9 °F 48% 29.91 in 10.0 mi WNW 16.1 mph - N/A   Mostly Cloudy
12:51 PM 52.0 °F - 32.0 °F 47% 29.91 in 10.0 mi WNW 9.2 mph - N/A   Scattered Clouds
1:51 PM 50.0 °F - 31.1 °F 48% 29.91 in 10.0 mi WNW 17.3 mph - N/A   Scattered Clouds
2:51 PM 48.9 °F - 28.0 °F 44% 29.94 in 10.0 mi NW 12.7 mph - N/A   Clear
3:51 PM 45.9 °F 39.7 °F 27.1 °F 48% 29.97 in 10.0 mi NW 13.8 mph - N/A   Scattered Clouds
4:51 PM 41.9 °F 31.9 °F 24.1 °F 49% 30.00 in 10.0 mi NW 25.3 mph - N/A   Overcast
5:51 PM 39.9 °F 31.4 °F 21.0 °F 47% 30.04 in 10.0 mi NW 16.1 mph - N/A   Overcast
6:51 PM 38.8 °F 28.8 °F 23.0 °F 53% 30.06 in 10.0 mi NNW 20.7 mph - N/A   Overcast
7:51 PM 36.9 °F 25.9 °F 20.1 °F 51% 30.09 in 10.0 mi NNW 21.9 mph 34.5 mph 0.00 in   Overcast
8:51 PM 36.0 °F 25.0 °F 18.1 °F 48% 30.10 in 10.0 mi NNW 20.7 mph - N/A   Overcast
9:51 PM 34.0 °F 21.8 °F 16.2 °F 48% 30.12 in 10.0 mi NNW 23.0 mph - N/A   Mostly Cloudy
10:51 PM 32.9 °F 22.8 °F 14.0 °F 46% 30.14 in 10.0 mi NNW 15.0 mph - N/A   Scattered Clouds
11:51 PM 31.1 °F 21.9 °F 14.0 °F 49% 30.17 in 10.0 mi NW 11.5 mph - N/A   Clear